COSMOS 2161

导读

COSMOS 2161是独联体(CIS)继承自苏联航天遗产后,于1991年9月28日发射入轨的“宇宙”系列卫星。作为冷战末期苏联航天活动的收尾产物,它延续了该系列军用侦察与技术试验的传统,承载着空间态势感知任务。入轨后长期运行在近地轨道,是独联体初期维持航天运行的典型代表,见证了苏联解体前后航天事业的过渡与延续。

基本信息
目录编号:
21732
目录名称:
COSMOS 2161
国际标识:
1991-068E
轨道中心:
EARTH
卫星名称:
COSMOS 2161
卫星全名:
--
卫星状态:
在轨 (已飞行12779 天)
发射日期:
1991-09-28 UTC
国别 :
俄罗斯(独联体) (CIS)
星等 :
--
该卫星已列入 空间交会检测服务 Space Conjunction Data Service (SCDS) ,当前飞行风险评估等级: 无高风险
轨道信息
数据来源 国际轨道数据 AOE轨道数据
星历时间 2026-09-22T23:11:34+0800
13小时前
查看轨道信息
2026-09-20T09:00:00+0800
3天前
查看轨道信息
半长轴 7779.362km 7779.358km
偏心率 0.0012074 0.0011835
轨道倾角 82.576° 82.572°
近地点辐角 108.650° 114.622°
升交点赤经 222.350° 224.010°
平近点角 64.290° 140.503°
近地点 1391.832km 1392.014km
远地点 1410.618km 1410.428km
周期 113.809分钟 113.809分钟
每日圈数 12.652806 12.652815
详细信息
使用方式:
暂无
2D轨道图
3D轨道图
轨道高度分析图
轨道倾角分析图
轨道综合分析图
查看轨道综合分析图
与全量物体交会距离演化趋势 订阅飞行安全评估服务
与全量物体交会风险概率演化趋势 订阅飞行安全评估服务